GW3872 Weather Reports


time (UTC)temp
C
wind
direction
speed
KPH
gust
KPH
rain 1hr
cm
rain 24hr
cm
rain mn
cm
humidity
%
barometer
mb
20260509024321 17 232 3.2 4.8 0.00 0.00 0.00 56 1008.5
20260509023814 17 232 3.2 4.8 0.00 0.00 0.00 55 1008.4
20260509023326 17 235 3.2 4.8 0.00 0.00 0.00 56 1008.4
20260509022819 17 234 3.2 6.4 0.00 0.00 0.00 56 1008.4
20260509022352 17 235 1.6 8.0 0.00 0.00 0.00 56 1008.4
20260509021823 17 235 3.2 8.0 0.00 0.00 0.00 55 1008.3
20260509021335 17 264 1.6 8.0 0.00 0.00 0.00 56 1008.4
20260509020827 17 238 3.2 8.0 0.00 0.00 0.00 55 1008.4
20260509020338 17 222 1.6 6.4 0.00 0.00 0.00 56 1008.4
20260509015811 17 238 3.2 6.4 0.00 0.00 0.00 55 1008.3
20260509014817 17 240 4.8 8.0 0.00 0.00 0.00 55 1008.3
20260509014329 17 240 3.2 9.7 0.00 0.00 0.00 56 1008.3
20260509013822 17 217 3.2 8.0 0.00 0.00 0.00 55 1008.2
20260509013315 17 229 1.6 4.8 0.00 0.00 0.00 55 1008.2
20260509012847 17 229 1.6 3.2 0.00 0.00 0.00 54 1008.2
20260509012319 17 246 1.6 11.3 0.00 0.00 0.00 55 1008.2
20260509011327 17 256 3.2 8.0 0.00 0.00 0.00 53 1008.1
20260509010820 17 212 3.2 8.0 0.00 0.00 0.00 53 1008.2
20260509010313 17 232 3.2 8.0 0.00 0.00 0.00 53 1008.2
20260509005843 18 255 3.2 6.4 0.00 0.00 0.00 52 1008.2
20260509005314 18 243 3.2 6.4 0.00 0.00 0.00 52 1008.2
20260509004827 18 226 1.6 6.4 0.00 0.00 0.00 52 1008.2
20260509004319 18 235 3.2 6.4 0.00 0.00 0.00 51 1008.2
20260509003830 18 244 3.2 9.7 0.00 0.00 0.00 51 1008.1
20260509003321 18 253 3.2 9.7 0.00 0.00 0.00 50 1008.0
20260509002838 18 246 1.6 9.7 0.00 0.00 0.00 50 1008.0
20260509002329 18 231 3.2 9.7 0.00 0.00 0.00 50 1008.0
20260509001822 18 248 4.8 8.0 0.00 0.00 0.00 49 1007.9
20260509001414 18 228 4.8 11.3 0.00 0.00 0.00 49 1008.0
20260509000842 19 255 4.8 11.3 0.00 0.00 0.00 48 1008.1
20260509000333 19 257 6.4 11.3 0.00 0.00 0.00 48 1008.0
20260508235822 19 212 6.4 11.3 0.00 0.00 0.00 48 1008.1
20260508235314 19 238 4.8 14.5 0.00 0.00 0.00 48 1008.1
20260508234827 19 201 8.0 14.5 0.00 0.00 0.00 48 1008.1
20260508234320 19 284 6.4 12.9 0.00 0.00 0.00 47 1008.1
20260508233830 19 248 6.4 16.1 0.00 0.00 0.00 48 1008.1
20260508233350 20 231 6.4 16.1 0.00 0.00 0.00 48 1008.0
20260508232825 20 246 6.4 16.1 0.00 0.00 0.00 47 1008.0
20260508232317 20 250 9.7 16.1 0.00 0.00 0.00 47 1008.1
20260508231848 20 252 8.0 20.9 0.00 0.00 0.00 47 1008.1
20260508231318 20 243 9.7 20.9 0.00 0.00 0.00 46 1008.2
20260508230829 20 222 4.8 17.7 0.00 0.00 0.00 48 1008.2
20260508230322 20 233 8.0 14.5 0.00 0.00 0.00 46 1008.4
20260508225831 20 233 6.4 20.9 0.00 0.00 0.00 46 1008.3
20260508225343 20 207 6.4 20.9 0.00 0.00 0.00 47 1008.2
20260508224854 20 238 8.0 16.1 0.00 0.00 0.00 47 1008.1
20260508224325 20 228 8.0 16.1 0.00 0.00 0.00 46 1008.1
20260508223820 20 246 9.7 17.7 0.00 0.00 0.00 45 1008.1
20260508223333 21 252 8.0 17.7 0.00 0.00 0.00 46 1008.0
20260508222825 21 249 3.2 14.5 0.00 0.00 0.00 49 1007.9
20260508222317 21 251 6.4 17.7 0.00 0.00 0.00 47 1007.9
20260508221830 21 252 8.0 17.7 0.00 0.00 0.00 46 1007.9
20260508221322 21 215 8.0 17.7 0.00 0.00 0.00 46 1007.9
20260508220831 21 245 6.4 19.3 0.00 0.00 0.00 47 1007.8
20260508220322 20 248 9.7 19.3 0.00 0.00 0.00 45 1007.8
20260508215850 21 231 4.8 20.9 0.00 0.00 0.00 46 1007.9
20260508215325 21 253 11.3 20.9 0.00 0.00 0.00 44 1007.9
20260508214837 21 222 6.4 22.5 0.00 0.00 0.00 44 1008.0
20260508214328 21 243 9.7 22.5 0.00 0.00 0.00 45 1008.0
20260508213820 21 218 12.9 20.9 0.00 0.00 0.00 43 1008.1
20260508213332 21 225 12.9 20.9 0.00 0.00 0.00 43 1008.1
20260508212825 21 205 9.7 19.3 0.00 0.00 0.00 43 1008.0
20260508212317 21 248 8.0 24.1 0.00 0.00 0.00 43 1008.0
20260508211829 21 226 11.3 24.1 0.00 0.00 0.00 43 1008.2
20260508211321 22 249 12.9 19.3 0.00 0.00 0.00 41 1008.3
20260508210817 22 173 12.9 20.9 0.00 0.00 0.00 42 1008.3
20260508210330 21 262 8.0 30.6 0.00 0.00 0.00 45 1008.4
20260508205859 21 248 17.7 29.0 0.00 0.00 0.00 43 1008.4
20260508205327 21 229 11.3 27.4 0.00 0.00 0.00 43 1008.5
20260508204821 21 276 12.9 29.0 0.00 0.00 0.00 42 1008.5
20260508204314 21 267 19.3 29.0 0.00 0.00 0.00 42 1008.7
20260508202830 21 224 4.8 35.4 0.00 0.00 0.00 45 1008.9
20260508202326 21 283 12.9 35.4 0.00 0.00 0.00 44 1009.1
20260508201817 21 264 9.7 27.4 0.00 0.00 0.00 43 1009.2
20260508201330 21 217 17.7 27.4 0.00 0.00 0.00 43 1009.4
20260508200821 21 276 9.7 24.1 0.00 0.00 0.00 44 1009.4
20260508200314 21 262 14.5 24.1 0.00 0.00 0.00 44 1009.4
20260508195822 21 224 12.9 30.6 0.00 0.00 0.00 43 1009.4
20260508195314 21 222 19.3 32.2 0.00 0.00 0.00 43 1009.6
20260508194824 21 250 14.5 24.1 0.00 0.00 0.00 44 1009.8
20260508194320 21 212 12.9 24.1 0.00 0.00 0.00 42 1009.8
20260508193832 21 236 12.9 25.7 0.00 0.00 0.00 43 1009.8
20260508193323 21 243 9.7 25.7 0.00 0.00 0.00 43 1009.9
20260508192329 21 269 14.5 29.0 0.00 0.00 0.00 42 1009.9
20260508191843 21 284 12.9 35.4 0.00 0.00 0.00 41 1010.0
20260508191335 21 238 22.5 35.4 0.00 0.00 0.00 40 1010.0
20260508190847 21 253 8.0 37.0 0.00 0.00 0.00 42 1009.9
20260508190319 21 240 11.3 27.4 0.00 0.00 0.00 41 1010.0
20260508185849 21 238 9.7 22.5 0.00 0.00 0.00 41 1010.0
20260508185341 21 242 14.5 29.0 0.00 0.00 0.00 42 1010.1
20260508184817 21 258 16.1 29.0 0.00 0.00 0.00 42 1010.2
20260508184330 21 243 9.7 27.4 0.00 0.00 0.00 44 1010.3
20260508183823 21 243 17.7 27.4 0.00 0.00 0.00 42 1010.3
20260508183316 21 238 11.3 24.1 0.00 0.00 0.00 41 1010.4
20260508182829 21 228 16.1 24.1 0.00 0.00 0.00 40 1010.5
20260508182343 21 242 9.7 32.2 0.00 0.00 0.00 42 1010.5
20260508181814 20 255 17.7 32.2 0.00 0.00 0.00 41 1010.6
20260508181328 20 290 14.5 24.1 0.00 0.00 0.00 44 1010.8
20260508180820 21 263 9.7 25.7 0.00 0.00 0.00 45 1010.9
20260508180317 21 219 16.1 25.7 0.00 0.00 0.00 41 1011.0
20260508175827 21 245 14.5 24.1 0.00 0.00 0.00 41 1011.0
20260508175320 20 231 9.7 25.7 0.00 0.00 0.00 43 1011.1
20260508174832 20 267 16.1 27.4 0.00 0.00 0.00 43 1011.1
20260508174325 20 280 19.3 32.2 0.00 0.00 0.00 45 1011.2
20260508173818 20 243 14.5 32.2 0.00 0.00 0.00 41 1011.4
20260508173331 20 219 11.3 29.0 0.00 0.00 0.00 45 1011.4
20260508172820 20 269 16.1 32.2 0.00 0.00 0.00 42 1011.6
20260508171828 20 276 14.5 24.1 0.00 0.00 0.00 44 1011.8
20260508171320 20 274 11.3 24.1 0.00 0.00 0.00 47 1011.8
20260508170813 20 228 9.7 24.1 0.00 0.00 0.00 47 1011.9
20260508170327 20 277 11.3 17.7 0.00 0.00 0.00 45 1012.0
20260508165817 20 190 8.0 19.3 0.00 0.00 0.00 47 1012.1
20260508165330 20 228 8.0 14.5 0.00 0.00 0.00 48 1012.2
20260508164823 20 235 9.7 25.7 0.00 0.00 0.00 46 1012.4
20260508164320 20 229 11.3 25.7 0.00 0.00 0.00 49 1012.6
20260508163832 20 190 11.3 22.5 0.00 0.00 0.00 49 1012.6
20260508163325 20 250 9.7 19.3 0.00 0.00 0.00 49 1012.8
20260508162818 20 229 8.0 19.3 0.00 0.00 0.00 48 1012.8
20260508162332 20 201 9.7 19.3 0.00 0.00 0.00 47 1012.9
20260508161824 20 235 11.3 22.5 0.00 0.00 0.00 47 1013.0
20260508161316 20 243 12.9 22.5 0.00 0.00 0.00 48 1013.0
20260508160821 19 257 8.0 16.1 0.00 0.00 0.00 49 1013.0
20260508160336 19 252 6.4 19.3 0.00 0.00 0.00 51 1013.0
20260508155827 19 257 11.3 19.3 0.00 0.00 0.00 48 1013.1
20260508155321 18 238 8.0 27.4 0.00 0.00 0.00 51 1013.2
20260508154814 18 259 17.7 27.4 0.00 0.00 0.00 47 1013.3
20260508154329 18 290 17.7 25.7 0.00 0.00 0.00 46 1013.4
20260508153823 18 245 12.9 22.5 0.00 0.00 0.00 47 1013.5
20260508153336 18 283 11.3 20.9 0.00 0.00 0.00 49 1013.6
20260508152828 18 235 6.4 16.1 0.00 0.00 0.00 50 1013.6
20260508152322 18 277 9.7 16.1 0.00 0.00 0.00 51 1013.8
20260508151818 18 281 8.0 16.1 0.00 0.00 0.00 51 1013.8
20260508151330 18 245 9.7 16.1 0.00 0.00 0.00 51 1013.8
20260508150824 18 256 8.0 17.7 0.00 0.00 0.00 51 1013.8
20260508150317 17 240 6.4 19.3 0.00 0.00 0.00 53 1013.9
20260508145829 17 211 9.7 19.3 0.00 0.00 0.00 51 1013.8
20260508145321 17 271 8.0 16.1 0.00 0.00 0.00 54 1013.9
20260508144814 17 257 6.4 16.1 0.00 0.00 0.00 55 1013.9
20260508144328 17 256 8.0 12.9 0.00 0.00 0.00 54 1014.0
20260508143825 16 242 4.8 20.9 0.00 0.00 0.00 56 1014.0
20260508143318 16 250 11.3 20.9 0.00 0.00 0.00 55 1014.1
20260508142851 16 246 11.3 17.7 0.00 0.00 0.00 54 1014.0
20260508142323 16 230 12.9 16.1 0.00 0.00 0.00 55 1014.0
20260508141816 16 235 9.7 16.1 0.00 0.00 0.00 56 1014.1
20260508141331 16 231 8.0 24.1 0.00 0.00 0.00 57 1014.1
20260508140325 15 231 8.0 16.1 0.00 0.00 0.00 59 1014.1
20260508135820 15 262 6.4 16.1 0.00 0.00 0.00 59 1014.1
20260508135353 15 249 9.7 19.3 0.00 0.00 0.00 61 1014.1
20260508134846 15 232 6.4 19.3 0.00 0.00 0.00 62 1014.2
20260508134337 14 256 8.0 14.5 0.00 0.00 0.00 60 1014.2
20260508133828 14 257 6.4 12.9 0.00 0.00 0.00 62 1014.2
20260508133320 13 244 6.4 11.3 0.00 0.00 0.00 62 1014.3
20260508132832 13 262 6.4 9.7 0.00 0.00 0.00 62 1014.2
20260508132323 13 256 3.2 9.7 0.00 0.00 0.00 64 1014.3
20260508131836 13 210 1.6 9.7 0.00 0.00 0.00 66 1014.3
20260508131327 12 253 4.8 9.7 0.00 0.00 0.00 65 1014.3
20260508130823 12 226 1.6 6.4 0.00 0.00 0.00 66 1014.2
20260508130337 12 222 1.6 8.0 0.00 0.00 0.00 68 1014.2
20260508125825 11 239 3.2 8.0 0.00 0.00 0.00 67 1014.2
20260508125317 11 218 3.2 8.0 0.00 0.00 0.00 68 1014.2
20260508124831 11 246 3.2 6.4 0.00 0.00 0.00 69 1014.2
20260508124325 10 275 4.8 9.7 0.00 0.00 0.00 69 1014.2
20260508123819 10 264 4.8 9.7 0.00 0.00 0.00 69 1014.2
20260508123352 10 233 4.8 9.7 0.00 0.00 0.00 70 1014.2
20260508122823 10 245 3.2 9.7 0.00 0.00 0.00 72 1014.2
20260508122319 9 238 4.8 8.0 0.00 0.00 0.00 73 1014.1
20260508121852 9 229 4.8 8.0 0.00 0.00 0.00 73 1014.1
20260508121324 8 215 3.2 9.7 0.00 0.00 0.00 75 1014.1
20260508120816 8 238 4.8 12.9 0.00 0.00 0.00 75 1014.1
20260508120328 8 218 3.2 6.4 0.00 0.00 0.00 77 1014.0
20260508115818 8 217 1.6 4.8 0.00 0.00 0.00 78 1014.0
20260508115330 7 221 1.6 4.8 0.00 0.00 0.00 79 1013.9
20260508114823 7 215 1.6 4.8 0.00 0.00 0.00 80 1013.9
20260508114335 7 222 1.6 3.2 0.00 0.00 0.00 81 1013.8
20260508113826 6 222 1.6 3.2 0.00 0.00 0.00 82 1013.8
20260508113322 6 223 1.6 3.2 0.00 0.00 0.00 82 1013.8
20260508112836 6 222 1.6 3.2 0.00 0.00 0.00 83 1013.6
20260508112328 5 198 1.6 3.2 0.00 0.00 0.00 83 1013.6
20260508111821 5 193 1.6 3.2 0.00 0.00 0.00 83 1013.7
20260508111315 5 226 1.6 3.2 0.00 0.00 0.00 84 1013.7
20260508110829 4 226 1.6 1.6 0.00 0.00 0.00 84 1013.6
20260508110321 3 226 1.6 1.6 0.00 0.00 0.00 84 1013.6
20260508105830 3 226 0.0 1.6 0.00 0.00 0.00 84 1013.5
20260508105326 3 226 0.0 1.6 0.00 0.00 0.00 84 1013.6
20260508104838 3 226 0.0 1.6 0.00 0.00 0.00 84 1013.5
20260508104329 3 227 0.0 0.0 0.00 0.00 0.00 84 1013.5
20260508103828 3 226 0.0 0.0 0.00 0.00 0.00 84 1013.5
20260508103341 3 226 0.0 1.6 0.00 0.00 0.00 84 1013.4
20260508102812 3 226 0.0 1.6 0.00 0.00 0.00 84 1013.4
20260508102324 3 226 1.6 1.6 0.00 0.00 0.00 84 1013.4
20260508101816 3 226 0.0 1.6 0.00 0.00 0.00 83 1013.4
20260508101329 3 226 0.0 1.6 0.00 0.00 0.00 83 1013.4
20260508100823 3 226 0.0 1.6 0.00 0.00 0.00 83 1013.4
20260508100340 3 226 0.0 1.6 0.00 0.00 0.00 83 1013.4
20260508095829 3 226 1.6 1.6 0.00 0.00 0.00 83 1013.3
20260508095322 3 226 0.0 1.6 0.00 0.00 0.00 83 1013.4
20260508094314 3 226 0.0 1.6 0.00 0.00 0.00 83 1013.5
20260508092830 4 226 0.0 0.0 0.00 0.00 0.00 83 1013.5
20260508092327 4 226 0.0 1.6 0.00 0.00 0.00 83 1013.4
20260508091820 4 226 0.0 1.6 0.00 0.00 0.00 83 1013.3
20260508091313 4 226 0.0 1.6 0.00 0.00 0.00 83 1013.3
20260508090826 5 226 0.0 1.6 0.00 0.00 0.00 83 1013.3
20260508090339 5 226 0.0 1.6 0.00 0.00 0.00 82 1013.3
20260508085827 5 226 0.0 1.6 0.00 0.00 0.00 82 1013.2
20260508085320 5 226 0.0 1.6 0.00 0.00 0.00 81 1013.2
20260508084326 5 226 0.0 1.6 0.00 0.00 0.00 80 1013.3
20260508083823 6 226 0.0 1.6 0.00 0.00 0.00 80 1013.2
20260508083316 6 226 0.0 1.6 0.00 0.00 0.00 80 1013.2
20260508082829 6 226 0.0 1.6 0.00 0.00 0.00 80 1013.2
20260508082320 5 226 1.6 3.2 0.00 0.00 0.00 80 1013.2
20260508081832 5 226 0.0 3.2 0.00 0.00 0.00 80 1013.2
20260508081325 5 218 1.6 1.6 0.00 0.00 0.00 80 1013.1
20260508080818 5 218 1.6 1.6 0.00 0.00 0.00 80 1013.1
20260508080314 5 218 0.0 1.6 0.00 0.00 0.00 79 1013.1
20260508075826 6 218 0.0 1.6 0.00 0.00 0.00 78 1013.1
20260508075338 6 218 0.0 1.6 0.00 0.00 0.00 78 1013.1
20260508074830 6 218 0.0 1.6 0.00 0.00 0.00 78 1013.0
20260508074322 6 218 1.6 1.6 0.00 0.00 0.00 78 1012.9
20260508073814 6 219 1.6 3.2 0.00 0.00 0.00 78 1013.0
20260508073327 6 218 1.6 3.2 0.00 0.00 0.00 78 1013.0
20260508072820 6 218 0.0 1.6 0.00 0.00 0.00 78 1013.1
20260508072314 6 218 0.0 3.2 0.00 0.00 0.00 77 1013.2
20260508071832 6 218 1.6 3.2 0.00 0.00 0.00 76 1013.2
20260508071326 6 218 1.6 3.2 0.00 0.00 0.00 76 1013.2
20260508070819 6 218 3.2 3.2 0.00 0.00 0.00 76 1013.3
20260508070331 6 218 1.6 1.6 0.00 0.00 0.00 76 1013.4
20260508065821 6 218 0.0 1.6 0.00 0.00 0.00 75 1013.4
20260508065314 7 218 1.6 1.6 0.00 0.00 0.00 74 1013.5
20260508064321 6 218 1.6 1.6 0.00 0.00 0.00 76 1013.5
20260508063317 6 218 0.0 0.0 0.00 0.00 0.00 76 1013.7
20260508062830 6 218 0.0 1.6 0.00 0.00 0.00 76 1013.7
20260508062322 7 218 0.0 1.6 0.00 0.00 0.00 74 1013.8
20260508061835 7 218 0.0 1.6 0.00 0.00 0.00 73 1013.8
20260508061346 7 219 1.6 3.2 0.00 0.00 0.00 72 1013.8
20260508060317 7 218 1.6 1.6 0.00 0.00 0.00 72 1013.9
20260508055828 7 218 1.6 3.2 0.00 0.00 0.00 72 1013.8
20260508055322 7 218 1.6 4.8 0.00 0.00 0.00 72 1013.9
20260508054821 7 221 3.2 4.8 0.00 0.00 0.00 72 1014.0
20260508054314 7 222 1.6 6.4 0.00 0.00 0.00 73 1014.1
20260508053848 7 222 3.2 6.4 0.00 0.00 0.00 73 1014.0
20260508053320 7 222 1.6 3.2 0.00 0.00 0.00 74 1014.0
20260508052813 7 223 1.6 3.2 0.00 0.00 0.00 74 1014.0
20260508052327 7 222 3.2 3.2 0.00 0.00 0.00 75 1013.9
20260508051820 7 222 1.6 3.2 0.00 0.00 0.00 75 1013.9
20260508051331 7 222 1.6 1.6 0.00 0.00 0.00 76 1013.9
20260508050824 6 222 1.6 3.2 0.00 0.00 0.00 78 1013.9
20260508050343 6 223 1.6 3.2 0.00 0.00 0.00 79 1013.9
20260508045813 6 223 0.0 1.6 0.00 0.00 0.00 80 1013.9
20260508045326 6 222 0.0 1.6 0.00 0.00 0.00 79 1013.9
20260508044818 6 223 1.6 3.2 0.00 0.00 0.00 79 1013.9
20260508044350 6 223 1.6 3.2 0.00 0.00 0.00 79 1013.9
20260508043820 6 222 3.2 3.2 0.00 0.00 0.00 81 1013.9
20260508043313 5 235 1.6 3.2 0.00 0.00 0.00 82 1013.9
20260508042826 5 235 1.6 3.2 0.00 0.00 0.00 82 1014.0
20260508041840 5 284 0.0 3.2 0.00 0.00 0.00 82 1013.9
20260508041316 5 134 3.2 3.2 0.00 0.00 0.00 82 1013.9
20260508040848 5 235 0.0 1.6 0.00 0.00 0.00 82 1013.9
20260508040339 5 235 0.0 1.6 0.00 0.00 0.00 82 1013.8
20260508035827 5 235 0.0 1.6 0.00 0.00 0.00 82 1013.8
20260508035318 5 235 0.0 1.6 0.00 0.00 0.00 82 1013.9
20260508034831 5 235 0.0 0.0 0.00 0.00 0.00 82 1013.9
20260508034322 5 235 0.0 0.0 0.00 0.00 0.00 80 1013.8
20260508033815 5 235 0.0 0.0 0.00 0.00 0.00 80 1013.8
20260508033328 5 235 0.0 0.0 0.00 0.00 0.00 80 1013.8
20260508032823 6 236 0.0 0.0 0.00 0.00 0.00 79 1013.8
20260508032314 6 235 0.0 0.0 0.00 0.00 0.00 78 1013.9
20260508031827 6 235 0.0 0.0 0.00 0.00 0.00 78 1013.8
20260508031318 6 235 0.0 0.0 0.00 0.00 0.00 78 1013.8
20260508030830 6 235 0.0 0.0 0.00 0.00 0.00 76 1013.8
20260508030322 7 235 0.0 0.0 0.00 0.00 0.00 77 1013.8
20260508025831 7 235 0.0 1.6 0.00 0.00 0.00 76 1013.8
20260508025325 7 235 0.0 1.6 0.00 0.00 0.00 75 1013.8
20260508024838 7 235 0.0 1.6 0.00 0.00 0.00 75 1013.7